This is the latest recevied weather packets stored in our database for station/object KB1JL-13. If no packets are shown the sender has not sent any weather packets the latest 10 day(s).
| Time | Temp. | Humidity | Pressure | Rain* | Wind** | Luminosity | Snow |
|---|---|---|---|---|---|---|---|
| 1777909913 | 18.89° C | 37% | 1023 hPa | 0 mm | - | 724 W/m² | - |
| 1777909610 | 18.89° C | 38% | 1023.4 hPa | 0 mm | - | 692 W/m² | - |
| 1777909307 | 18.89° C | 38% | 1023 hPa | 0 mm | - | 667 W/m² | - |
| 1777909005 | 19.44° C | 37% | 1023 hPa | 0 mm | - | 671 W/m² | - |
| 1777908703 | 18.33° C | 40% | 1023.4 hPa | 0 mm | - | 751 W/m² | - |
| 1777908399 | 18.33° C | 40% | 1023 hPa | 0 mm | - | 744 W/m² | - |
| 1777908096 | 17.78° C | 41% | 1023.4 hPa | 0 mm | - | 787 W/m² | - |
| 1777907792 | 18.33° C | 40% | 1023.4 hPa | 0 mm | - | 780 W/m² | - |
| 1777907487 | 17.78° C | 39% | 1023.4 hPa | 0 mm | - | 772 W/m² | - |
| 1777907185 | 18.33° C | 38% | 1023.7 hPa | 0 mm | - | 721 W/m² | - |
| 1777906881 | 17.78° C | 39% | 1023.7 hPa | 0 mm | - | 702 W/m² | - |
| 1777906579 | 17.78° C | 39% | 1023.4 hPa | 0 mm | - | 715 W/m² | - |
| 1777906274 | 17.78° C | 38% | 1023.7 hPa | 0 mm | - | 730 W/m² | - |
| 1777905971 | 18.33° C | 40% | 1023.7 hPa | 0 mm | - | 702 W/m² | - |
| 1777905668 | 17.78° C | 40% | 1023.7 hPa | 0 mm | - | 662 W/m² | - |
| 1777905364 | 17.78° C | 42% | 1023.7 hPa | 0 mm | - | 647 W/m² | - |
| 1777905063 | 17.78° C | 40% | 1023.7 hPa | 0 mm | - | 655 W/m² | - |
| 1777904759 | 17.22° C | 41% | 1023.7 hPa | 0 mm | - | 666 W/m² | - |
| 1777904456 | 17.22° C | 40% | 1023.7 hPa | 0 mm | - | 679 W/m² | - |
| 1777904153 | 17.22° C | 39% | 1024 hPa | 0 mm | - | 665 W/m² | - |
| 1777903850 | 17.22° C | 43% | 1023.7 hPa | 0 mm | - | 668 W/m² | - |
| 1777903546 | 17.22° C | 42% | 1024 hPa | 0 mm | - | 649 W/m² | - |
| 1777903243 | 16.67° C | 44% | 1023.7 hPa | 0 mm | - | 631 W/m² | - |
| 1777902939 | 16.67° C | 42% | 1024 hPa | 0 mm | - | 619 W/m² | - |
| 1777902636 | 16.67° C | 43% | 1024 hPa | 0 mm | - | 618 W/m² | - |
* Rain latest hour (hover to see other rain measurements)
** Current wind speed in m/s (hover to see current wind gust speed)